User: anonymous   Login
Location: Unspecified
(0.0000°N, 0.0000°E)
Time: 19:24:36
(UTC+00:00)
Language:

AEROCUBE 2 - Orbit

View from above orbital plane
View from above orbital plane
View from above satellite
View from above satellite

Ground track
Ground track

The orbit data is extracted from the following two-line orbital elements,

1 31133U 07012R   19341.08966805  .00000063  00000-0  23045-4 0  9998
2 31133  98.1442 283.6098 0080049 198.4842 161.3446 14.59153236672092
Epoch (UTC): 07 December 2019 02:09:07
Eccentricity: 0.0080049
inclination: 98.1442°
perigee height: 639 km
apogee height: 752 km
right ascension of ascending node: 283.6098°
argument of perigee: 198.4842°
revolutions per day: 14.59153236
mean anomaly at epoch: 161.3446°
orbit number at epoch: 67209

The dashed part of the orbit path shows where the satellite is in the earth's shadow,  

DLR